[[{"header":{"parameterUnit":"m.s-1","parameterCategory":1,"la1":30.2991,"la2":30.254,"lo1":-89.0895,"lo2":-89.0444,"dy":0.0017,"dx":0.0017,"nx":28,"ny":28,"refTime":"2024-11-29T09:00:00:Z","depth":0,"parameterNumber":2,"parameterNumberName":"U-component_of_WINDS"},"data":[0,0,0,0,0,0,0,0,0,0,0,0,0,0,0,0,0,0,0,0,0,0,0,0,0,0,0,0,0,0,0,0,0,0,0,0,0,0,0,0,0,0,0,0,0,0,0,0,0,0,0,0,0,0,0,0,0,0,-1.886,-1.886,0,-1.8936,-1.8937,-1.8938,-1.8883,-1.888,-1.8878,-1.8876,-1.8956,-1.896,-1.8964,0,0,0,0,0,0,0,0,0,0,0,0,0,-1.8666,-1.867,-1.8859,-1.886,-1.8861,-1.8936,-1.8937,-1.8938,-1.8883,-1.888,-1.8877,-1.8875,-1.8954,-1.8959,-1.8965,0,0,0,0,0,0,0,0,0,0,0,0,0,-1.8747,-1.8671,-1.8859,-1.8843,-1.8842,-1.8936,-1.8937,-1.8938,-1.8884,-1.888,-1.8877,-1.8873,-1.8952,-1.8959,-1.8965,-1.9079,0,0,-1.8985,-1.8988,0,0,0,0,0,0,0,0,-1.8742,-1.8754,-1.8844,-1.8844,-1.8844,-1.8896,-1.8898,-1.8986,-1.8885,-1.8868,-1.8876,-1.8871,-1.8939,-1.8946,-1.8969,-1.9083,-1.9086,-1.8986,-1.899,-1.8993,-1.8995,0,0,0,0,0,0,0,-1.8737,-1.8751,-1.889,-1.8846,-1.8845,-1.8832,-1.8839,-1.8914,-1.8923,-1.8869,-1.8866,-1.8875,-1.8938,-1.8962,-1.897,-1.9087,-1.8986,-1.8992,-1.8996,-1.8998,-1.9297,-1.9301,0,0,0,0,0,0,-1.8733,-1.8746,-1.8887,-1.8892,-1.8783,-1.8838,-1.8847,-1.8883,-1.8922,-1.8925,-1.8878,-1.8872,-1.8953,-1.8963,-1.8973,-1.9109,-1.8993,-1.8999,-1.9003,-1.9293,-1.9298,-1.9303,0,0,0,0,0,0,-1.8729,-1.8746,-1.8884,-1.8818,-1.8835,-1.8845,-1.8887,-1.8886,-1.8911,-1.8929,-1.893,-1.8902,-1.895,-1.8963,-1.9053,-1.9111,-1.9002,-1.9008,-1.9289,-1.9295,-1.93,-1.9381,0,0,0,0,0,0,-1.8723,-1.8745,-1.8788,-1.8819,-1.8838,-1.8963,-1.889,-1.8891,-1.8922,-1.8915,-1.8951,-1.8954,-1.8949,-1.9043,-1.9059,-1.9118,-1.9013,-1.9284,-1.9291,-1.9299,-1.9373,-1.9389,-1.9403,0,0,0,0,0,-1.8717,-1.8809,-1.8791,-1.8808,-1.8893,-1.8967,-1.8978,-1.897,-1.8927,-1.8971,-1.8982,-1.8953,-1.9101,-1.9053,-1.907,-1.9132,-1.928,-1.9289,-1.9298,-1.9367,-1.9386,-1.9402,0,0,0,0,0,0,-1.8785,-1.8813,-1.8793,-1.8898,-1.893,-1.8957,-1.9013,-1.899,-1.9036,-1.9028,-1.9015,-1.9024,-1.9118,-1.9133,-1.9079,-1.9243,-1.9184,-1.9197,-1.923,-1.9249,-1.9263,-1.9258,-1.9019,0,0,0,0,0,-1.8812,-1.887,-1.889,-1.8981,-1.8998,-1.9003,-1.9034,-1.9025,-1.9058,-1.9072,-1.909,-1.9123,-1.9177,-1.9213,-1.9264,-1.9374,-1.9381,-1.9425,-1.9439,-1.9451,-1.9463,-1.9522,-1.9542,-1.9332,-1.9332,-1.9332,0,0,-1.887,-1.8891,-1.8929,-1.8995,-1.9019,-1.9079,-1.9015,-1.9081,-1.9125,-1.9082,-1.9168,-1.9181,-1.9218,-1.9318,-1.9363,-1.9334,-1.9522,-1.9463,-1.9472,-1.9478,-1.9534,-1.9553,-1.9571,-1.9338,-1.9337,-1.9336,0,0,-1.9004,-1.9026,-1.9104,-1.9129,-1.9165,-1.9167,-1.9186,-1.9216,-1.9224,-1.9309,-1.9277,-1.9329,-1.9423,-1.945,-1.9476,-1.9618,-1.9593,-1.9635,-1.9712,-1.9769,-1.9786,-1.9801,-1.9852,-1.987,-1.9646,-1.9646,-1.9646,0,-1.9071,-1.916,-1.9147,-1.9215,-1.9245,-1.9207,-1.9285,-1.931,-1.9362,-1.9383,-1.9349,-1.9465,-1.9487,-1.9593,-1.9627,-1.9649,-1.967,-1.9632,-1.9785,-1.9799,-1.9813,-1.9861,-1.9881,-1.9651,-1.9651,-1.965,-1.965,0,-1.924,-1.9302,-1.936,-1.941,-1.9446,-1.9519,-1.9517,-1.9555,-1.9541,-1.9547,-1.9633,-1.9658,-1.9712,-1.9736,-1.9724,-1.984,-1.9821,-1.9786,-1.9727,-1.9838,-1.9883,-1.9902,-1.9658,-1.9657,-1.9655,-1.9654,0,0,-1.9423,-1.9463,-1.9485,-1.9507,-1.9543,-1.9591,-1.9661,-1.9713,-1.9746,-1.9782,-1.9841,-1.992,-1.9887,-1.9917,-1.9907,-1.9957,-2.0068,-1.9916,-1.9917,-1.9944,-2.0197,-2.0225,-2.0246,-2.005,-2.0054,-2.0057,-2.0195,0,-1.9561,-1.9684,-1.9673,-1.979,-1.9846,-1.9809,-1.9871,-1.9899,-1.9906,-1.9954,-1.9961,-2.0017,-1.997,-1.9987,-2.0035,-2.0045,-2.0119,-2.0034,-2.0106,-2.0109,-2.01,-2.027,-2.03,-2.0429,-2.0212,-2.0215,-2.0217,0,-1.9739,-1.978,-1.9902,-1.9928,-1.9951,-2.0007,-2.0053,-2.01,-2.0131,-2.0132,-2.0164,-2.0145,-2.0215,-2.0152,-2.0249,-2.0192,-2.0219,-2.0228,-2.0233,-2.0241,-2.0171,-2.0284,-2.047,-2.049,-2.0245,-2.0243,-2.0241,0,-1.9861,-1.9947,-2.0031,-2.005,-2.0083,-2.0123,-2.0138,-2.0165,-2.0197,-2.0238,-2.0258,-2.0306,-2.0333,-2.037,-2.0365,-2.0319,-2.0463,-2.04,-2.0466,-2.0467,-2.05,-2.0499,-2.0695,-2.0516,-2.0516,-2.0515,-2.0515,0,-2.0017,-2.0093,-2.0086,-2.0138,-2.0222,-2.0208,-2.0291,-2.0302,-2.0326,-2.0379,-2.035,-2.04,-2.0388,-2.0438,-2.0434,-2.0515,-2.0527,-2.0529,-2.0528,-2.0533,-2.0533,-2.0553,-2.0544,-2.052,-2.0519,-2.0518,-2.0517,0,-2.0169,-2.0168,-2.0257,-2.0279,-2.0287,-2.0348,-2.0367,-2.0416,-2.0418,-2.0485,-2.05,-2.0505,-2.0561,-2.0558,-2.0623,-2.062,-2.072,-2.0707,-2.0709,-2.0707,-2.0774,-2.0769,-2.0991,-2.102,-2.0821,-2.0823,-2.0825,0,-2.027,-2.0328,-2.0356,-2.0389,-2.0407,-2.0461,-2.0492,-2.048,-2.0514,-2.0552,-2.0597,-2.065,-2.0693,-2.0785,-2.0794,-2.0843,-2.0832,-2.0906,-2.0839,-2.0842,-2.0834,-2.0831,-2.0837,-2.092,-2.0923,-2.0924,-2.0926,0,-2.0449,-2.0444,-2.0491,-2.0538,-2.0576,-2.0612,-2.0645,-2.0674,-2.0664,-2.0704,-2.0761,-2.0794,-2.0859,-2.0913,-2.0959,-2.0974,-2.0949,-2.0946,-2.0965,-2.0972,-2.0971,-2.0973,-2.0747,-2.0942,-2.0941,-2.0939,-2.0938,-2.0938,-2.0579,-2.0628,-2.0656,-2.0708,-2.0731,-2.0762,-2.0809,-2.0816,-2.0863,-2.0915,-2.0904,-2.0969,-2.0996,-2.1056,-2.1075,-2.1125,-2.1098,-2.1125,-2.1132,-2.1139,-2.1147,-2.0962,-2.1133,-2.1133,-2.1132,-2.1132,-2.1131,0,-2.0757,-2.0772,-2.0821,-2.0867,-2.0908,-2.0879,-2.0913,-2.0949,-2.1006,-2.1034,-2.1076,-2.1141,-2.1193,-2.1204,-2.1253,-2.1291,-2.1281,-2.1305,-2.1303,-2.1307,-2.1167,-2.1147,-2.1312,-2.1312,-2.1312,-2.1312,-2.1312,-2.1312,-2.0855,-2.0937,-2.0935,-2.1027,-2.1041,-2.1104,-2.1126,-2.1154,-2.1176,-2.125,-2.1292,-2.1299,-2.132,-2.137,-2.1416,-2.1417,-2.1438,-2.1467,-2.1464,-2.1334,-2.1316,-2.1299,-2.128,-2.1471,-2.1471,-2.1599,-2.16,-2.1601]},{"header":{"parameterUnit":"m.s-1","parameterCategory":1,"la1":30.2991,"la2":30.254,"lo1":-89.0895,"lo2":-89.0444,"dy":0.0017,"dx":0.0017,"nx":28,"ny":28,"refTime":"2024-11-29T09:00:00:Z","depth":0,"parameterNumber":3,"parameterNumberName":"V-component_of_WINDS"},"data":[0,0,0,0,0,0,0,0,0,0,0,0,0,0,0,0,0,0,0,0,0,0,0,0,0,0,0,0,0,0,0,0,0,0,0,0,0,0,0,0,0,0,0,0,0,0,0,0,0,0,0,0,0,0,0,0,0,0,-7.3814,-7.3816,0,-7.3962,-7.3964,-7.3966,-7.3873,-7.3868,-7.3864,-7.386,-7.4005,-7.4013,-7.4021,0,0,0,0,0,0,0,0,0,0,0,0,0,-7.3444,-7.3451,-7.3814,-7.3816,-7.3818,-7.3962,-7.3964,-7.3966,-7.3873,-7.3868,-7.3863,-7.3858,-7.4003,-7.4012,-7.4022,0,0,0,0,0,0,0,0,0,0,0,0,0,-7.3599,-7.3454,-7.3814,-7.3789,-7.3788,-7.3962,-7.3964,-7.3967,-7.3875,-7.3868,-7.3861,-7.3855,-7.4,-7.4011,-7.4023,-7.4227,0,0,-7.4059,-7.4064,0,0,0,0,0,0,0,0,-7.3591,-7.3613,-7.3791,-7.3791,-7.3791,-7.3892,-7.3887,-7.4054,-7.3876,-7.3842,-7.386,-7.3852,-7.3973,-7.3986,-7.4028,-7.4233,-7.424,-7.406,-7.4067,-7.4072,-7.4076,0,0,0,0,0,0,0,-7.358,-7.3606,-7.3872,-7.3794,-7.3794,-7.3768,-7.3783,-7.3918,-7.3942,-7.3844,-7.3838,-7.3857,-7.3971,-7.4017,-7.4031,-7.4242,-7.406,-7.407,-7.4078,-7.4082,-7.4619,-7.4626,0,0,0,0,0,0,-7.3572,-7.3598,-7.3868,-7.3877,-7.3673,-7.378,-7.3797,-7.3866,-7.394,-7.3945,-7.3862,-7.3852,-7.4,-7.4017,-7.4036,-7.4278,-7.4072,-7.4084,-7.409,-7.4612,-7.4621,-7.4628,0,0,0,0,0,0,-7.3565,-7.3597,-7.3862,-7.3736,-7.3768,-7.3794,-7.3872,-7.3873,-7.3918,-7.3954,-7.3957,-7.3905,-7.3995,-7.4019,-7.418,-7.4282,-7.4089,-7.41,-7.4604,-7.4615,-7.4624,-7.4766,0,0,0,0,0,0,-7.3554,-7.3595,-7.3675,-7.3738,-7.3775,-7.4006,-7.3879,-7.388,-7.394,-7.3928,-7.3995,-7.4,-7.3992,-7.4163,-7.4192,-7.4295,-7.4109,-7.4595,-7.4608,-7.4621,-7.4752,-7.478,-7.4804,0,0,0,0,0,-7.3542,-7.3708,-7.3679,-7.3712,-7.3875,-7.4013,-7.4033,-7.4023,-7.3949,-7.4028,-7.405,-7.3998,-7.4266,-7.418,-7.4212,-7.432,-7.4588,-7.4605,-7.462,-7.474,-7.4774,-7.4803,0,0,0,0,0,0,-7.3654,-7.3716,-7.3685,-7.3877,-7.3941,-7.3997,-7.4096,-7.4059,-7.4144,-7.4129,-7.411,-7.4126,-7.4294,-7.4322,-7.4226,-7.452,-7.4415,-7.4438,-7.4495,-7.4528,-7.4553,-7.4543,-7.4119,0,0,0,0,0,-7.3701,-7.381,-7.3857,-7.4022,-7.4055,-7.4071,-7.413,-7.4116,-7.418,-7.4206,-7.424,-7.4303,-7.44,-7.4466,-7.4558,-7.4755,-7.4767,-7.4845,-7.4871,-7.4892,-7.4912,-7.5017,-7.5052,-7.4681,-7.4681,-7.4681,0,0,-7.38,-7.3847,-7.3916,-7.4045,-7.4093,-7.4203,-7.4094,-7.4215,-7.4297,-7.4224,-7.4379,-7.4406,-7.4473,-7.4653,-7.4734,-7.4682,-7.5017,-7.4912,-7.4929,-7.4938,-7.5037,-7.5072,-7.5103,-7.4692,-7.469,-7.4688,0,0,-7.4036,-7.4083,-7.4225,-7.4275,-7.4349,-7.4358,-7.4392,-7.4454,-7.447,-7.4625,-7.4572,-7.4666,-7.4836,-7.4887,-7.4934,-7.5188,-7.5142,-7.5218,-7.5353,-7.5455,-7.5484,-7.551,-7.56,-7.5632,-7.5238,-7.5238,-7.5238,0,-7.4148,-7.4315,-7.4302,-7.4429,-7.4486,-7.4427,-7.4569,-7.4617,-7.4716,-7.4756,-7.4697,-7.4908,-7.495,-7.514,-7.5202,-7.5243,-7.5279,-7.5211,-7.5482,-7.5507,-7.5531,-7.5616,-7.565,-7.5247,-7.5246,-7.5245,-7.5244,0,-7.445,-7.4566,-7.4671,-7.4771,-7.484,-7.4973,-7.4978,-7.5049,-7.5029,-7.5043,-7.52,-7.5248,-7.5348,-7.5392,-7.5373,-7.5579,-7.5544,-7.5484,-7.5378,-7.5576,-7.5655,-7.5688,-7.5259,-7.5256,-7.5254,-7.5251,0,0,-7.4762,-7.4852,-7.4891,-7.4935,-7.5011,-7.5099,-7.5228,-7.5328,-7.5389,-7.5459,-7.5565,-7.571,-7.5654,-7.5708,-7.5694,-7.5784,-7.598,-7.5712,-7.5713,-7.576,-7.6208,-7.6253,-7.6292,-7.595,-7.5956,-7.5961,-7.6202,0,-7.5003,-7.5232,-7.5223,-7.5435,-7.5541,-7.5485,-7.5597,-7.5655,-7.5671,-7.5761,-7.5777,-7.588,-7.5799,-7.5831,-7.5918,-7.5938,-7.607,-7.592,-7.6047,-7.6052,-7.6033,-7.6333,-7.6382,-7.6608,-7.6233,-7.6239,-7.6243,0,-7.5314,-7.5397,-7.5621,-7.568,-7.5724,-7.5825,-7.5915,-7.6003,-7.6065,-7.607,-7.6131,-7.6101,-7.6229,-7.612,-7.6295,-7.6194,-7.6244,-7.6262,-7.627,-7.6282,-7.616,-7.6353,-7.6679,-7.6713,-7.6291,-7.6288,-7.6284,0,-7.5519,-7.5686,-7.5841,-7.588,-7.5953,-7.6025,-7.6059,-7.6115,-7.6175,-7.6252,-7.6291,-7.6381,-7.6431,-7.6501,-7.6495,-7.6416,-7.6673,-7.6563,-7.6679,-7.6679,-7.6736,-7.6732,-7.7075,-7.6769,-7.6768,-7.6768,-7.6767,0,-7.5789,-7.5928,-7.5934,-7.6029,-7.6182,-7.6169,-7.632,-7.6345,-7.6396,-7.6493,-7.6449,-7.654,-7.6528,-7.6619,-7.6615,-7.676,-7.6783,-7.6789,-7.6786,-7.6793,-7.6793,-7.6827,-7.6811,-7.6777,-7.6775,-7.6773,-7.6771,0,-7.6045,-7.6054,-7.622,-7.6275,-7.6292,-7.6402,-7.6448,-7.6538,-7.6549,-7.6673,-7.6701,-7.6719,-7.6824,-7.6825,-7.6945,-7.6942,-7.7119,-7.7098,-7.7099,-7.7095,-7.721,-7.7199,-7.7587,-7.7637,-7.7298,-7.7301,-7.7304,0,-7.6217,-7.6322,-7.6389,-7.6452,-7.6491,-7.6593,-7.6654,-7.6644,-7.6709,-7.6787,-7.6866,-7.6968,-7.7048,-7.7218,-7.724,-7.7331,-7.7312,-7.7441,-7.7325,-7.7328,-7.7313,-7.7307,-7.7317,-7.7464,-7.7468,-7.7471,-7.7474,0,-7.652,-7.6519,-7.6611,-7.6704,-7.6779,-7.6851,-7.6917,-7.697,-7.6967,-7.7042,-7.715,-7.7213,-7.7335,-7.7436,-7.7523,-7.7554,-7.7513,-7.751,-7.7541,-7.755,-7.7546,-7.7549,-7.7161,-7.7501,-7.7498,-7.7496,-7.7495,-7.7494,-7.6739,-7.683,-7.6891,-7.6994,-7.7043,-7.7106,-7.7192,-7.7215,-7.7305,-7.7406,-7.7393,-7.7513,-7.757,-7.7684,-7.7722,-7.7814,-7.7768,-7.7814,-7.7826,-7.7837,-7.785,-7.7531,-7.7829,-7.7829,-7.7828,-7.7827,-7.7827,0,-7.704,-7.7076,-7.7171,-7.7266,-7.7346,-7.7302,-7.7373,-7.7442,-7.7549,-7.7607,-7.7687,-7.781,-7.7906,-7.7936,-7.8028,-7.8096,-7.8079,-7.8121,-7.8115,-7.8123,-7.7885,-7.7849,-7.8132,-7.8132,-7.8132,-7.8132,-7.8132,-7.8132,-7.7206,-7.7357,-7.7363,-7.7537,-7.7572,-7.7691,-7.7735,-7.7791,-7.7838,-7.7978,-7.8058,-7.8077,-7.8123,-7.8218,-7.8304,-7.831,-7.8346,-7.8395,-7.8393,-7.8171,-7.814,-7.8111,-7.8076,-7.8403,-7.8403,-7.8623,-7.8625,-7.8626]}]]